Flag for Mexico Weather past 2 weeks in Playa del Carmen, Quintana Roo, Mexico

Now
73 °F

Passing clouds.


Feels Like: 72 °F
Forecast: 74 / 82 °F
Wind: 10 mph from North

Location: Cozumel Civ / Mil

Current Time: Oct 25, 2014 at 9:17:26 PM

Latest Report: Oct 25, 2014 at 8:46 PM


Visibility: 7 mi

Pressure: 29.98 "Hg

Humidity: 89%

Dew point: 70 °F

Location of Playa del CarmenLocation

Historic Weather in Playa del Carmen — Graph

°F

Playa del Carmen temperature yesterday

Maximum temperature yesterday: 79 °F (at 12:45 PM)
Minimum temperature yesterday: 72 °F (at 4:43 AM)
Average temperature yesterday: 75 °F

Past Weeks' High & Low Weather Summary

 TemperatureHumidityPressure
High84 °F (Oct 11, 11:40 AM)100% (Oct 10, 9:40 PM)30.02 "Hg (Oct 10, 9:40 PM)
Low34 °F (Oct 20, 8:22 AM)66% (Oct 25, 12:41 PM)29.53 "Hg (Oct 15, 12:48 AM)
Average75 °F95%29.89 "Hg
* Reported Oct 10 7:47 PM — Oct 25 7:44 PM, Playa del Carmen, Weather by CustomWeather, © 2014

Note: Actual official high and low records may vary slightly from our data, if they occured in-between our weather recording intervals... More about our weather records

Advertising

Playa del Carmen weather history for previous 24 hours

 ConditionsComfort  
Time TempWeatherWind HumidityBarometerVisibility
7:44 PM
Oct 25
73 °FPassing clouds.14 mph89%29.97 "Hg7 mi
6:42 PM75 °FScattered clouds.14 mph83%29.94 "Hg7 mi
5:48 PM75 °FScattered clouds.14 mph83%29.94 "Hg8 mi
4:50 PM79 °FScattered clouds.12 mph84%29.94 "Hg8 mi
3:42 PM81 °FScattered clouds.14 mph66%29.95 "Hg8 mi
2:42 PM81 °FScattered clouds.14 mph66%29.73 "Hg8 mi
1:47 PM79 °FBroken clouds.14 mph70%29.95 "Hg8 mi
12:41 PM81 °FBroken clouds.12 mph66%29.95 "Hg8 mi
11:40 AM79 °FBroken clouds.16 mph70%29.98 "Hg8 mi
10:41 AM79 °FPartly sunny.12 mph70%29.98 "Hg8 mi
9:43 AM77 °FPartly sunny.10 mph74%29.99 "Hg8 mi
8:44 AM75 °FBroken clouds.14 mph78%29.97 "Hg8 mi
7:46 AM72 °FPartly sunny.12 mph88%29.96 "Hg8 mi
6:41 AM73 °FPassing clouds.10 mph83%29.91 "Hg7 mi
5:50 AM73 °FPartly cloudy.9 mph83%29.93 "Hg7 mi
4:53 AM72 °FMostly cloudy.12 mph88%29.91 "Hg7 mi
3:41 AM73 °FPartly cloudy.13 mph89%29.91 "Hg7 mi
3:20 AM73 °FMostly cloudy.14 mph89%29.89 "Hg7 mi
1:42 AM75 °FMostly cloudy.13 mph89%29.92 "Hg7 mi
12:46 AM75 °FMostly cloudy.10 mph94%29.88 "Hg7 mi
11:49 PM
Oct 24
75 °FMostly cloudy.13 mph94%29.91 "Hg7 mi
10:43 PM75 °FMostly cloudy.10 mph94%29.91 "Hg7 mi
9:48 PM75 °FMostly cloudy.14 mph100%29.93 "Hg7 mi
Weather by CustomWeather, © 2014

See weather overviewHow to use our weather pages